[[{"header":{"parameterUnit":"m.s-1","parameterCategory":1,"la1":30.2991,"la2":30.254,"lo1":-89.0895,"lo2":-89.0444,"dy":0.0017,"dx":0.0017,"nx":28,"ny":28,"refTime":"2024-10-03T03:00:00:Z","depth":0,"parameterNumber":2,"parameterNumberName":"U-component_of_WINDS"},"data":[0,0,0,0,0,0,0,0,0,0,0,0,0,0,0,0,0,0,0,0,0,0,0,0,0,0,0,0,0,0,0,0,0,0,0,0,0,0,0,0,0,0,0,0,0,0,0,0,0,0,0,0,0,0,0,0,0,0,-2.7356,-2.7356,0,-2.7303,-2.7302,-2.7301,-2.7173,-2.717,-2.7168,-2.7165,-2.7113,-2.7114,-2.7116,0,0,0,0,0,0,0,0,0,0,0,0,0,-2.7351,-2.7352,-2.7356,-2.7356,-2.7355,-2.7303,-2.7302,-2.7301,-2.7174,-2.717,-2.7167,-2.7164,-2.7113,-2.7114,-2.7116,0,0,0,0,0,0,0,0,0,0,0,0,0,-2.7331,-2.7352,-2.7357,-2.7285,-2.7278,-2.7303,-2.7302,-2.7301,-2.7174,-2.717,-2.7166,-2.7163,-2.7113,-2.7114,-2.7116,-2.7207,0,0,-2.7121,-2.7122,0,0,0,0,0,0,0,0,-2.7332,-2.7331,-2.7296,-2.729,-2.7282,-2.724,-2.7281,-2.727,-2.7175,-2.7214,-2.7165,-2.7161,-2.7159,-2.7157,-2.7155,-2.7204,-2.7202,-2.7121,-2.7122,-2.7123,-2.7123,0,0,0,0,0,0,0,-2.7334,-2.7333,-2.7335,-2.7296,-2.7287,-2.7256,-2.7249,-2.7278,-2.721,-2.721,-2.7201,-2.7196,-2.7154,-2.7154,-2.7153,-2.7201,-2.7121,-2.7122,-2.7124,-2.7124,-2.7321,-2.7325,0,0,0,0,0,0,-2.7345,-2.7335,-2.7337,-2.7333,-2.7298,-2.726,-2.7252,-2.7258,-2.7209,-2.7198,-2.7199,-2.719,-2.7153,-2.7152,-2.7151,-2.7253,-2.7123,-2.7124,-2.7125,-2.7316,-2.7321,-2.7326,0,0,0,0,0,0,-2.7346,-2.7347,-2.7339,-2.7332,-2.7328,-2.7264,-2.7272,-2.7259,-2.7258,-2.7201,-2.7188,-2.7212,-2.715,-2.7149,-2.7193,-2.7249,-2.7125,-2.7127,-2.7311,-2.7318,-2.7324,-2.7459,0,0,0,0,0,0,-2.7346,-2.7348,-2.7381,-2.7333,-2.7329,-2.7382,-2.7276,-2.7261,-2.7261,-2.7249,-2.7209,-2.7198,-2.7147,-2.7191,-2.7195,-2.7249,-2.7128,-2.7306,-2.7314,-2.7322,-2.7449,-2.7469,-2.7486,0,0,0,0,0,-2.7346,-2.7422,-2.7383,-2.7384,-2.7369,-2.7385,-2.7383,-2.7321,-2.7266,-2.73,-2.7262,-2.72,-2.7243,-2.7197,-2.72,-2.7256,-2.7302,-2.7312,-2.7321,-2.7441,-2.7465,-2.7486,0,0,0,0,0,0,-2.7479,-2.7414,-2.7371,-2.7433,-2.7416,-2.7364,-2.7404,-2.7349,-2.7347,-2.7336,-2.726,-2.7252,-2.7307,-2.7286,-2.7236,-2.7341,-2.7262,-2.7273,-2.7352,-2.7375,-2.7393,-2.7397,-2.7129,0,0,0,0,0,-2.7516,-2.7533,-2.7476,-2.7537,-2.753,-2.7469,-2.7473,-2.7427,-2.7406,-2.7398,-2.7364,-2.7348,-2.7357,-2.7365,-2.7371,-2.7446,-2.7435,-2.7485,-2.7504,-2.7519,-2.7529,-2.7566,-2.7588,-2.7357,-2.7357,-2.7357,0,0,-2.7591,-2.7558,-2.7574,-2.7562,-2.7543,-2.7564,-2.7463,-2.7489,-2.7504,-2.7403,-2.7442,-2.7417,-2.7393,-2.7453,-2.7478,-2.7437,-2.7591,-2.7532,-2.7544,-2.7545,-2.7578,-2.76,-2.762,-2.7364,-2.7362,-2.7361,0,0,-2.7739,-2.7716,-2.7763,-2.7746,-2.7718,-2.7676,-2.7688,-2.7644,-2.7623,-2.7661,-2.7586,-2.7602,-2.7621,-2.7606,-2.7601,-2.7743,-2.7685,-2.7748,-2.7844,-2.7881,-2.7899,-2.7915,-2.7965,-2.7984,-2.7758,-2.7758,-2.7758,0,-2.7837,-2.7863,-2.7795,-2.7825,-2.7822,-2.7731,-2.7778,-2.7765,-2.7741,-2.7741,-2.7696,-2.7716,-2.7694,-2.7748,-2.7783,-2.7783,-2.7793,-2.7751,-2.7902,-2.7917,-2.7931,-2.7978,-2.7997,-2.7766,-2.7765,-2.7764,-2.7763,0,-2.7985,-2.8005,-2.8046,-2.8024,-2.8025,-2.8065,-2.8003,-2.8013,-2.7967,-2.7931,-2.797,-2.794,-2.7937,-2.7947,-2.7903,-2.7996,-2.7971,-2.7916,-2.7835,-2.7962,-2.8004,-2.8022,-2.7777,-2.7774,-2.7772,-2.777,0,0,-2.8215,-2.8153,-2.8169,-2.8157,-2.812,-2.8134,-2.8169,-2.8165,-2.8175,-2.8162,-2.8189,-2.8207,-2.8154,-2.8149,-2.8102,-2.8135,-2.8248,-2.8074,-2.8073,-2.8107,-2.8348,-2.839,-2.8411,-2.821,-2.8213,-2.8216,-2.835,0,-2.8353,-2.8407,-2.8347,-2.8414,-2.8431,-2.8345,-2.8375,-2.8356,-2.8323,-2.8333,-2.8297,-2.831,-2.824,-2.8236,-2.8265,-2.8229,-2.8296,-2.8218,-2.8235,-2.8236,-2.8242,-2.8434,-2.8478,-2.8606,-2.8366,-2.8369,-2.8371,0,-2.8521,-2.8513,-2.8583,-2.8539,-2.8544,-2.8573,-2.8564,-2.8575,-2.8551,-2.8525,-2.8519,-2.8462,-2.8494,-2.8416,-2.8459,-2.8408,-2.8411,-2.8394,-2.8398,-2.8396,-2.831,-2.8437,-2.8645,-2.8664,-2.8396,-2.8394,-2.8392,0,-2.868,-2.8688,-2.873,-2.8723,-2.8674,-2.8696,-2.8676,-2.8648,-2.865,-2.8643,-2.8643,-2.8641,-2.8639,-2.8639,-2.8583,-2.8532,-2.8632,-2.855,-2.8611,-2.8613,-2.8636,-2.8635,-2.8847,-2.864,-2.864,-2.864,-2.8639,0,-2.884,-2.8885,-2.8801,-2.8827,-2.8875,-2.8805,-2.8856,-2.8828,-2.8803,-2.8823,-2.8748,-2.8768,-2.8694,-2.8706,-2.8663,-2.8704,-2.8705,-2.8685,-2.8672,-2.8691,-2.8693,-2.8691,-2.868,-2.8645,-2.8644,-2.8643,-2.8642,0,-2.9026,-2.8971,-2.901,-2.896,-2.8949,-2.8987,-2.8944,-2.8966,-2.8929,-2.8954,-2.8956,-2.8897,-2.8908,-2.8852,-2.8853,-2.8824,-2.8887,-2.886,-2.8895,-2.8886,-2.895,-2.8944,-2.9167,-2.9192,-2.8971,-2.8973,-2.8975,0,-2.913,-2.9163,-2.9116,-2.9123,-2.9107,-2.912,-2.912,-2.9053,-2.9057,-2.9032,-2.9058,-2.9062,-2.9061,-2.9082,-2.904,-2.904,-2.9012,-2.909,-2.9012,-2.9029,-2.9012,-2.901,-2.9013,-2.9107,-2.9109,-2.9112,-2.9113,0,-2.9322,-2.9293,-2.9296,-2.929,-2.9293,-2.9285,-2.9272,-2.9283,-2.921,-2.9218,-2.9227,-2.9227,-2.9227,-2.9232,-2.9224,-2.9204,-2.9147,-2.9139,-2.9152,-2.9171,-2.9189,-2.9179,-2.8938,-2.9134,-2.9132,-2.913,-2.9129,-2.9128,-2.947,-2.9494,-2.9465,-2.947,-2.9454,-2.9443,-2.9461,-2.9425,-2.9431,-2.9425,-2.9386,-2.9402,-2.9377,-2.936,-2.9346,-2.9359,-2.9321,-2.9342,-2.9347,-2.9353,-2.9364,-2.9188,-2.9357,-2.9356,-2.9356,-2.9355,-2.9355,0,-2.9656,-2.9633,-2.9639,-2.9623,-2.9628,-2.9572,-2.9555,-2.9563,-2.9578,-2.9559,-2.956,-2.957,-2.9575,-2.9533,-2.9532,-2.955,-2.9523,-2.9552,-2.9549,-2.9545,-2.9397,-2.9385,-2.9573,-2.9573,-2.9573,-2.9573,-2.9573,-2.9573,-2.9754,-2.9792,-2.976,-2.9789,-2.9765,-2.978,-2.9775,-2.9765,-2.9749,-2.9764,-2.9766,-2.9739,-2.9711,-2.9707,-2.9709,-2.9696,-2.9699,-2.9736,-2.9715,-2.9577,-2.9556,-2.9536,-2.9523,-2.9738,-2.9738,-2.9861,-2.9863,-2.9864]},{"header":{"parameterUnit":"m.s-1","parameterCategory":1,"la1":30.2991,"la2":30.254,"lo1":-89.0895,"lo2":-89.0444,"dy":0.0017,"dx":0.0017,"nx":28,"ny":28,"refTime":"2024-10-03T03:00:00:Z","depth":0,"parameterNumber":3,"parameterNumberName":"V-component_of_WINDS"},"data":[0,0,0,0,0,0,0,0,0,0,0,0,0,0,0,0,0,0,0,0,0,0,0,0,0,0,0,0,0,0,0,0,0,0,0,0,0,0,0,0,0,0,0,0,0,0,0,0,0,0,0,0,0,0,0,0,0,0,-2.2946,-2.2947,0,-2.3055,-2.3057,-2.3058,-2.3086,-2.3085,-2.3084,-2.3084,-2.3193,-2.3197,-2.32,0,0,0,0,0,0,0,0,0,0,0,0,0,-2.2755,-2.2759,-2.2945,-2.2947,-2.2948,-2.3055,-2.3057,-2.3058,-2.3086,-2.3085,-2.3084,-2.3083,-2.3192,-2.3196,-2.32,0,0,0,0,0,0,0,0,0,0,0,0,0,-2.2849,-2.276,-2.2945,-2.2975,-2.2979,-2.3055,-2.3057,-2.3059,-2.3086,-2.3085,-2.3084,-2.3083,-2.3191,-2.3196,-2.3201,-2.3254,0,0,-2.3217,-2.322,0,0,0,0,0,0,0,0,-2.2843,-2.2856,-2.2969,-2.2973,-2.2977,-2.3056,-2.303,-2.3124,-2.3086,-2.3045,-2.3084,-2.3082,-2.3148,-2.3157,-2.318,-2.326,-2.3264,-2.3218,-2.3221,-2.3223,-2.3225,0,0,0,0,0,0,0,-2.2837,-2.2851,-2.2989,-2.2971,-2.2976,-2.2981,-2.2993,-2.3048,-2.3101,-2.3049,-2.3051,-2.3064,-2.315,-2.3174,-2.3182,-2.3266,-2.3218,-2.3222,-2.3226,-2.3228,-2.3393,-2.3394,0,0,0,0,0,0,-2.2826,-2.2845,-2.2985,-2.2992,-2.2907,-2.2986,-2.2999,-2.3032,-2.31,-2.311,-2.3064,-2.3065,-2.3166,-2.3176,-2.3186,-2.3252,-2.3223,-2.3228,-2.3231,-2.3392,-2.3393,-2.3394,0,0,0,0,0,0,-2.2822,-2.2838,-2.2981,-2.2919,-2.2938,-2.299,-2.3026,-2.3034,-2.3059,-2.3112,-2.3122,-2.308,-2.3165,-2.3179,-2.3237,-2.3256,-2.3231,-2.3235,-2.339,-2.3392,-2.3394,-2.3385,0,0,0,0,0,0,-2.2816,-2.2836,-2.2858,-2.292,-2.2941,-2.3031,-2.3027,-2.3037,-2.3068,-2.3069,-2.3129,-2.3138,-2.3166,-2.3229,-2.3242,-2.3263,-2.324,-2.3389,-2.3391,-2.3393,-2.3384,-2.3386,-2.3388,0,0,0,0,0,-2.2809,-2.2851,-2.2859,-2.2876,-2.297,-2.3032,-2.3044,-2.3076,-2.307,-2.3091,-2.3125,-2.3136,-2.3252,-2.3235,-2.325,-2.3273,-2.3388,-2.339,-2.3393,-2.3383,-2.3386,-2.3388,0,0,0,0,0,0,-2.279,-2.286,-2.287,-2.2933,-2.2977,-2.3037,-2.3065,-2.3078,-2.3124,-2.3123,-2.3159,-2.3172,-2.3228,-2.3256,-2.3235,-2.3327,-2.332,-2.3325,-2.3306,-2.331,-2.3312,-2.3304,-2.3244,0,0,0,0,0,-2.2793,-2.2839,-2.2897,-2.2948,-2.2969,-2.3013,-2.3042,-2.3062,-2.3108,-2.3126,-2.3165,-2.3208,-2.3254,-2.3283,-2.3329,-2.3388,-2.34,-2.3411,-2.3413,-2.3415,-2.3419,-2.345,-2.3455,-2.3403,-2.3403,-2.3403,0,0,-2.2801,-2.2844,-2.2871,-2.2945,-2.2981,-2.3026,-2.3029,-2.3077,-2.311,-2.3133,-2.3191,-2.322,-2.327,-2.3329,-2.3356,-2.3354,-2.3436,-2.3418,-2.3419,-2.3423,-2.3454,-2.3459,-2.3463,-2.3405,-2.3404,-2.3404,0,0,-2.2837,-2.2875,-2.2921,-2.2956,-2.3011,-2.304,-2.3051,-2.3109,-2.3129,-2.3187,-2.3205,-2.3245,-2.3324,-2.3358,-2.3386,-2.3433,-2.3444,-2.3447,-2.3459,-2.3489,-2.3493,-2.3497,-2.3512,-2.3517,-2.3451,-2.3451,-2.3451,0,-2.2839,-2.2909,-2.2942,-2.2989,-2.302,-2.3044,-2.3089,-2.3121,-2.3188,-2.3208,-2.3204,-2.3303,-2.3339,-2.3404,-2.3416,-2.3438,-2.345,-2.344,-2.349,-2.3494,-2.3498,-2.3513,-2.3519,-2.3451,-2.3451,-2.3451,-2.3451,0,-2.2907,-2.2955,-2.2985,-2.3049,-2.3083,-2.3129,-2.3168,-2.3198,-2.3215,-2.3244,-2.3301,-2.3345,-2.3398,-2.3416,-2.3433,-2.3483,-2.348,-2.3483,-2.3476,-2.3502,-2.3517,-2.3523,-2.3451,-2.3451,-2.3451,-2.3451,0,0,-2.2936,-2.3016,-2.3027,-2.3055,-2.3116,-2.3153,-2.3199,-2.3252,-2.3277,-2.3321,-2.3359,-2.3424,-2.3427,-2.3458,-2.3479,-2.3506,-2.3538,-2.3505,-2.3507,-2.3509,-2.3595,-2.3592,-2.3598,-2.3546,-2.3547,-2.3548,-2.359,0,-2.2978,-2.3063,-2.3093,-2.3161,-2.3205,-2.3227,-2.3266,-2.3307,-2.3334,-2.3374,-2.3404,-2.3449,-2.345,-2.3469,-2.3496,-2.3528,-2.3556,-2.3526,-2.358,-2.3582,-2.3567,-2.3606,-2.3604,-2.3642,-2.3596,-2.3597,-2.3598,0,-2.304,-2.3085,-2.3158,-2.3212,-2.3232,-2.3267,-2.3317,-2.3355,-2.3401,-2.3419,-2.3453,-2.3472,-2.3519,-2.3509,-2.3573,-2.3552,-2.3576,-2.3595,-2.3597,-2.3603,-2.3591,-2.3612,-2.3655,-2.366,-2.3608,-2.3607,-2.3606,0,-2.3052,-2.3131,-2.3185,-2.3208,-2.3273,-2.3297,-2.3325,-2.3369,-2.3399,-2.3442,-2.3461,-2.3509,-2.3535,-2.3571,-2.3601,-2.3592,-2.3662,-2.3655,-2.3677,-2.3676,-2.3691,-2.3689,-2.3737,-2.3707,-2.3707,-2.3706,-2.3706,0,-2.3096,-2.314,-2.3191,-2.3223,-2.3272,-2.3305,-2.3352,-2.3381,-2.342,-2.3458,-2.3479,-2.3514,-2.3552,-2.3591,-2.3614,-2.3663,-2.3675,-2.3689,-2.3695,-2.3687,-2.3685,-2.3703,-2.3701,-2.3708,-2.3708,-2.3707,-2.3707,0,-2.3118,-2.3154,-2.3213,-2.3269,-2.3284,-2.3317,-2.3365,-2.3396,-2.3424,-2.3471,-2.3484,-2.3527,-2.3574,-2.3608,-2.3668,-2.3684,-2.3735,-2.3741,-2.372,-2.3723,-2.3742,-2.3739,-2.3803,-2.3812,-2.3776,-2.3776,-2.3777,0,-2.3144,-2.3178,-2.3237,-2.3264,-2.3292,-2.3335,-2.3365,-2.3399,-2.3429,-2.3483,-2.3507,-2.3555,-2.3596,-2.3669,-2.3705,-2.3751,-2.3757,-2.3776,-2.3764,-2.3755,-2.3756,-2.3754,-2.3757,-2.3778,-2.3778,-2.3778,-2.3778,0,-2.3185,-2.3201,-2.3244,-2.3293,-2.3328,-2.3368,-2.3408,-2.3428,-2.3469,-2.3501,-2.3549,-2.3581,-2.3642,-2.3689,-2.3738,-2.3765,-2.3778,-2.3782,-2.3789,-2.3781,-2.3767,-2.3774,-2.3724,-2.378,-2.378,-2.378,-2.378,-2.378,-2.3209,-2.324,-2.3286,-2.3333,-2.3366,-2.3403,-2.3435,-2.3466,-2.3508,-2.356,-2.3577,-2.3627,-2.367,-2.3737,-2.3764,-2.3802,-2.3801,-2.3812,-2.3815,-2.3817,-2.3816,-2.3761,-2.3811,-2.3811,-2.3811,-2.3811,-2.3811,0,-2.3251,-2.3282,-2.3324,-2.3379,-2.3415,-2.3425,-2.347,-2.3499,-2.3542,-2.3582,-2.3621,-2.3675,-2.372,-2.3759,-2.3806,-2.3829,-2.3836,-2.384,-2.3838,-2.3844,-2.3814,-2.3803,-2.3833,-2.3833,-2.3833,-2.3833,-2.3833,-2.3833,-2.3277,-2.3329,-2.3349,-2.3417,-2.3447,-2.3496,-2.352,-2.3553,-2.3585,-2.3645,-2.3683,-2.3708,-2.3747,-2.3796,-2.3837,-2.3848,-2.3863,-2.3866,-2.3877,-2.3849,-2.3846,-2.3844,-2.3833,-2.3869,-2.3869,-2.3903,-2.3903,-2.3904]}]]